| time (UTC) | temp F | wind direction | speed MPH | gust MPH | rain 1hr in | rain 24hr in | rain mn in | humidity % | barometer mb |
| 20260903113136 | 68 | 150 | 0.0 | 1.0 | 0.00 | 0.56 | 0.00 | 91 | 1013.7 |
| 20260903112510 | 68 | 249 | 0.0 | 1.0 | 0.00 | 0.56 | 0.00 | 91 | 1013.7 |
| 20260903112031 | 68 | 142 | 0.0 | 3.0 | 0.00 | 0.56 | 0.00 | 91 | 1013.6 |
| 20260903111548 | 68 | 228 | 0.0 | 3.0 | 0.00 | 0.56 | 0.00 | 91 | 1013.6 |
| 20260903111104 | 68 | 174 | 0.0 | 3.0 | 0.00 | 0.56 | 0.00 | 91 | 1013.5 |
| 20260903110622 | 68 | 151 | 0.0 | 2.0 | 0.00 | 0.56 | 0.00 | 91 | 1013.5 |
| 20260903110005 | 68 | 144 | 0.0 | 2.0 | 0.00 | 0.56 | 0.00 | 91 | 1013.5 |
| 20260903105550 | 68 | 216 | 0.0 | 3.0 | 0.00 | 0.56 | 0.00 | 91 | 1013.5 |
| 20260903105114 | 68 | 227 | 0.0 | 3.0 | 0.00 | 0.56 | 0.00 | 91 | 1013.5 |
| 20260903104641 | 68 | 209 | 0.0 | 2.0 | 0.00 | 0.56 | 0.00 | 91 | 1013.6 |
| 20260903104005 | 68 | 181 | 0.0 | 1.0 | 0.00 | 0.56 | 0.00 | 91 | 1013.6 |
| 20260903103518 | 68 | 164 | 0.0 | 1.0 | 0.00 | 0.56 | 0.00 | 91 | 1013.5 |
| 20260903103049 | 68 | 150 | 0.0 | 3.0 | 0.00 | 0.56 | 0.00 | 91 | 1013.5 |
| 20260903102558 | 68 | 254 | 0.0 | 3.0 | 0.00 | 0.56 | 0.00 | 91 | 1013.5 |
| 20260903102119 | 68 | 159 | 0.0 | 4.0 | 0.00 | 0.56 | 0.00 | 91 | 1013.4 |
| 20260903101543 | 68 | 174 | 0.0 | 5.0 | 0.00 | 0.56 | 0.00 | 91 | 1013.3 |
| 20260903101100 | 68 | 208 | 1.0 | 6.0 | 0.00 | 0.56 | 0.00 | 91 | 1013.4 |
| 20260903100616 | 68 | 248 | 1.0 | 7.0 | 0.00 | 0.56 | 0.00 | 91 | 1013.4 |
| 20260903100141 | 68 | 221 | 1.0 | 7.0 | 0.00 | 0.56 | 0.00 | 91 | 1013.3 |
| 20260903095507 | 67 | 197 | 0.0 | 6.0 | 0.00 | 0.56 | 0.00 | 91 | 1013.5 |
| 20260903095022 | 67 | 249 | 0.0 | 5.0 | 0.00 | 0.56 | 0.00 | 91 | 1013.5 |
| 20260903094601 | 67 | 190 | 0.0 | 3.0 | 0.00 | 0.56 | 0.00 | 91 | 1013.4 |
| 20260903094116 | 67 | 219 | 0.0 | 5.0 | 0.00 | 0.56 | 0.00 | 92 | 1013.4 |
| 20260903093636 | 67 | 157 | 1.0 | 5.0 | 0.00 | 0.56 | 0.00 | 92 | 1013.4 |
| 20260903093054 | 67 | 224 | 1.0 | 5.0 | 0.00 | 0.56 | 0.00 | 92 | 1013.5 |
| 20260903092548 | 67 | 279 | 0.0 | 2.0 | 0.00 | 0.56 | 0.00 | 92 | 1013.4 |
| 20260903092112 | 67 | 268 | 0.0 | 1.0 | 0.00 | 0.56 | 0.00 | 92 | 1013.5 |
| 20260903091640 | 67 | 196 | 0.0 | 4.0 | 0.00 | 0.56 | 0.00 | 92 | 1013.3 |
| 20260903091013 | 67 | 202 | 0.0 | 6.0 | 0.00 | 0.56 | 0.00 | 92 | 1013.4 |
| 20260903090528 | 67 | 134 | 0.0 | 6.0 | 0.00 | 0.56 | 0.00 | 92 | 1013.4 |
| 20260903090044 | 67 | 161 | 0.0 | 3.0 | 0.00 | 0.56 | 0.00 | 92 | 1013.3 |
| 20260903085602 | 67 | 147 | 0.0 | 6.0 | 0.00 | 0.56 | 0.00 | 92 | 1013.4 |
| 20260903085120 | 67 | 165 | 0.0 | 6.0 | 0.00 | 0.56 | 0.00 | 92 | 1013.4 |
| 20260903084515 | 67 | 244 | 0.0 | 9.0 | 0.00 | 0.56 | 0.00 | 92 | 1013.4 |
| 20260903084034 | 67 | 167 | 0.0 | 9.0 | 0.00 | 0.56 | 0.00 | 92 | 1013.5 |
| 20260903083547 | 67 | 166 | 1.0 | 6.0 | 0.00 | 0.56 | 0.00 | 92 | 1013.5 |
| 20260903083104 | 67 | 154 | 2.0 | 6.0 | 0.00 | 0.56 | 0.00 | 92 | 1013.5 |
| 20260903082622 | 67 | 189 | 0.0 | 4.0 | 0.00 | 0.56 | 0.00 | 92 | 1013.5 |
| 20260903082008 | 67 | 193 | 0.0 | 5.0 | 0.00 | 0.56 | 0.00 | 92 | 1013.4 |
| 20260903081538 | 67 | 199 | 0.0 | 5.0 | 0.00 | 0.56 | 0.00 | 92 | 1013.6 |
| 20260903081053 | 67 | 251 | 0.0 | 4.0 | 0.00 | 0.56 | 0.00 | 92 | 1013.5 |
| 20260903080615 | 67 | 151 | 0.0 | 4.0 | 0.00 | 0.56 | 0.00 | 92 | 1013.5 |
| 20260903080034 | 67 | 221 | 0.0 | 8.0 | 0.00 | 0.56 | 0.00 | 92 | 1013.6 |
| 20260903075554 | 67 | 161 | 0.0 | 5.0 | 0.00 | 0.56 | 0.00 | 92 | 1013.6 |
| 20260903075116 | 67 | 238 | 0.0 | 5.0 | 0.00 | 0.56 | 0.00 | 92 | 1013.6 |
| 20260903074639 | 67 | 155 | 0.0 | 4.0 | 0.00 | 0.56 | 0.00 | 92 | 1013.6 |
| 20260903074006 | 67 | 163 | 0.0 | 6.0 | 0.00 | 0.56 | 0.00 | 92 | 1013.7 |
| 20260903073526 | 67 | 158 | 1.0 | 6.0 | 0.00 | 0.56 | 0.00 | 92 | 1013.8 |
| 20260903073055 | 67 | 174 | 0.0 | 5.0 | 0.00 | 0.56 | 0.00 | 92 | 1013.9 |
| 20260903072612 | 67 | 238 | 0.0 | 5.0 | 0.00 | 0.56 | 0.00 | 92 | 1013.9 |
| 20260903072132 | 67 | 178 | 0.0 | 5.0 | 0.00 | 0.56 | 0.00 | 92 | 1013.7 |
| 20260903071651 | 67 | 235 | 0.0 | 5.0 | 0.00 | 0.56 | 0.00 | 92 | 1013.9 |
| 20260903071018 | 67 | 200 | 0.0 | 3.0 | 0.00 | 0.56 | 0.00 | 92 | 1013.8 |
| 20260903070536 | 67 | 218 | 0.0 | 6.0 | 0.00 | 0.56 | 0.00 | 92 | 1013.8 |
| 20260903070100 | 67 | 197 | 0.0 | 8.0 | 0.00 | 0.56 | 0.00 | 92 | 1013.7 |
| 20260903065607 | 67 | 169 | 1.0 | 9.0 | 0.00 | 0.56 | 0.00 | 92 | 1013.6 |
| 20260903065125 | 67 | 209 | 1.0 | 9.0 | 0.00 | 0.56 | 0.00 | 92 | 1013.8 |
| 20260903064543 | 67 | 231 | 1.0 | 7.0 | 0.00 | 0.56 | 0.00 | 92 | 1013.6 |
| 20260903064102 | 66 | 152 | 2.0 | 8.0 | 0.00 | 0.56 | 0.00 | 92 | 1013.5 |
| 20260903063623 | 66 | 219 | 1.0 | 8.0 | 0.00 | 0.56 | 0.00 | 92 | 1013.5 |
| 20260903063040 | 66 | 205 | 1.0 | 8.0 | 0.00 | 0.56 | 0.00 | 92 | 1013.4 |
| 20260903062558 | 66 | 171 | 0.0 | 6.0 | 0.00 | 0.56 | 0.00 | 92 | 1013.5 |
| 20260903062119 | 66 | 151 | 0.0 | 5.0 | 0.00 | 0.56 | 0.00 | 91 | 1013.6 |
| 20260903061531 | 66 | 193 | 0.0 | 2.0 | 0.00 | 0.56 | 0.00 | 91 | 1013.7 |
| 20260903061049 | 66 | 221 | 0.0 | 6.0 | 0.00 | 0.56 | 0.00 | 91 | 1013.6 |
| 20260903060607 | 65 | 178 | 0.0 | 6.0 | 0.00 | 0.56 | 0.00 | 91 | 1013.5 |
| 20260903060134 | 65 | 158 | 0.0 | 0.0 | 0.00 | 0.56 | 0.00 | 91 | 1013.5 |
| 20260903055633 | 65 | 202 | 0.0 | 0.0 | 0.00 | 0.56 | 0.00 | 91 | 1013.5 |
| 20260903055020 | 65 | 145 | 0.0 | 0.0 | 0.00 | 0.56 | 0.00 | 91 | 1013.4 |
| 20260903054545 | 65 | 129 | 0.0 | 0.0 | 0.00 | 0.56 | 0.00 | 91 | 1013.5 |
| 20260903054058 | 65 | 159 | 0.0 | 0.0 | 0.00 | 0.56 | 0.00 | 91 | 1013.5 |
| 20260903053616 | 65 | 145 | 0.0 | 0.0 | 0.00 | 0.56 | 0.00 | 91 | 1013.4 |
| 20260903053006 | 65 | 120 | 0.0 | 0.0 | 0.00 | 0.56 | 0.00 | 91 | 1013.4 |
| 20260903052524 | 65 | 109 | 0.0 | 0.0 | 0.00 | 0.56 | 0.00 | 91 | 1013.4 |
| 20260903052042 | 65 | 143 | 0.0 | 0.0 | 0.00 | 0.56 | 0.00 | 91 | 1013.5 |
| 20260903051553 | 65 | 157 | 0.0 | 1.0 | 0.00 | 0.56 | 0.00 | 91 | 1013.4 |
| 20260903051114 | 65 | 238 | 0.0 | 1.0 | 0.00 | 0.56 | 0.00 | 91 | 1013.4 |
| 20260903050633 | 65 | 131 | 0.0 | 2.0 | 0.00 | 0.56 | 0.00 | 91 | 1013.5 |
| 20260903050040 | 65 | 123 | 0.0 | 2.0 | 0.00 | 0.56 | 0.00 | 91 | 1013.4 |
| 20260903045555 | 65 | 176 | 0.0 | 2.0 | 0.00 | 0.56 | 0.00 | 91 | 1013.2 |
| 20260903045112 | 65 | 169 | 0.0 | 6.0 | 0.00 | 0.56 | 0.00 | 91 | 1013.1 |
| 20260903044638 | 65 | 193 | 0.0 | 6.0 | 0.00 | 0.56 | 0.00 | 91 | 1013.1 |
| 20260903044006 | 65 | 223 | 0.0 | 3.0 | 0.00 | 0.56 | 0.00 | 91 | 1013.0 |
| 20260903043525 | 65 | 245 | 0.0 | 1.0 | 0.00 | 0.56 | 0.00 | 91 | 1013.0 |
| 20260903043050 | 65 | 117 | 0.0 | 1.0 | 0.00 | 0.56 | 0.00 | 91 | 1013.1 |
| 20260903042616 | 65 | 164 | 0.0 | 1.0 | 0.00 | 0.56 | 0.00 | 91 | 1013.3 |
| 20260903042133 | 65 | 171 | 0.0 | 7.0 | 0.00 | 0.56 | 0.00 | 91 | 1013.5 |
| 20260903041516 | 65 | 176 | 0.0 | 7.0 | 0.00 | 0.56 | 0.00 | 91 | 1013.8 |
| 20260903041024 | 65 | 185 | 0.0 | 8.0 | 0.00 | 0.56 | 0.00 | 91 | 1013.9 |
| 20260903040536 | 65 | 200 | 1.0 | 8.0 | 0.00 | 0.56 | 0.00 | 91 | 1014.0 |
| 20260903040059 | 65 | 174 | 0.0 | 1.0 | 0.00 | 0.56 | 0.00 | 91 | 1014.1 |
| 20260903035501 | 65 | 176 | 0.0 | 5.0 | 0.00 | 0.56 | 0.56 | 91 | 1014.2 |
| 20260903035021 | 65 | 164 | 0.0 | 8.0 | 0.01 | 0.56 | 0.56 | 91 | 1014.3 |
| 20260903034543 | 65 | 201 | 0.0 | 11.0 | 0.01 | 0.56 | 0.56 | 91 | 1014.5 |
| 20260903034104 | 65 | 196 | 6.0 | 12.0 | 0.01 | 0.56 | 0.56 | 91 | 1014.1 |
| 20260903033618 | 64 | 168 | 3.0 | 14.0 | 0.01 | 0.56 | 0.56 | 91 | 1014.1 |
| 20260903033142 | 64 | 193 | 2.0 | 20.0 | 0.02 | 0.56 | 0.56 | 91 | 1013.5 |
| 20260903032517 | 64 | 213 | 2.0 | 16.0 | 0.02 | 0.56 | 0.56 | 91 | 1012.9 |
| 20260903032034 | 64 | 155 | 2.0 | 17.0 | 0.02 | 0.56 | 0.56 | 91 | 1012.3 |
| 20260903031602 | 64 | 172 | 1.0 | 17.0 | 0.03 | 0.56 | 0.56 | 91 | 1012.1 |
| 20260903031117 | 64 | 221 | 1.0 | 15.0 | 0.03 | 0.56 | 0.56 | 91 | 1012.1 |
| 20260903030503 | 65 | 108 | 1.0 | 9.0 | 0.04 | 0.56 | 0.56 | 92 | 1012.3 |
| 20260903030154 | 65 | 178 | 2.0 | 9.0 | 0.05 | 0.56 | 0.56 | 92 | 1012.4 |
| 20260903025506 | 65 | 149 | 1.0 | 12.0 | 0.06 | 0.56 | 0.56 | 92 | 1012.5 |
| 20260903025028 | 65 | 202 | 1.0 | 11.0 | 0.06 | 0.56 | 0.56 | 92 | 1012.7 |
| 20260903024549 | 65 | 204 | 1.0 | 11.0 | 0.07 | 0.56 | 0.56 | 92 | 1013.2 |
| 20260903024111 | 66 | 117 | 0.0 | 7.0 | 0.07 | 0.56 | 0.56 | 92 | 1013.2 |
| 20260903023632 | 66 | 141 | 0.0 | 6.0 | 0.07 | 0.55 | 0.55 | 92 | 1013.6 |
| 20260903023020 | 66 | 195 | 0.0 | 1.0 | 0.09 | 0.55 | 0.55 | 92 | 1014.2 |
| 20260903022525 | 67 | 178 | 0.0 | 7.0 | 0.10 | 0.55 | 0.55 | 92 | 1014.1 |
| 20260903022048 | 67 | 251 | 0.0 | 16.0 | 0.11 | 0.55 | 0.55 | 91 | 1013.8 |
| 20260903021617 | 67 | 230 | 3.0 | 16.0 | 0.10 | 0.54 | 0.54 | 91 | 1012.5 |
| 20260903021003 | 68 | 189 | 1.0 | 8.0 | 0.10 | 0.54 | 0.54 | 91 | 1012.9 |
| 20260903020523 | 68 | 231 | 0.0 | 7.0 | 0.12 | 0.53 | 0.53 | 90 | 1013.7 |
| 20260903020043 | 68 | 229 | 0.0 | 7.0 | 0.15 | 0.52 | 0.52 | 90 | 1014.0 |
| 20260903015601 | 68 | 135 | 0.0 | 4.0 | 0.15 | 0.51 | 0.51 | 90 | 1014.1 |
| 20260903015119 | 68 | 275 | 0.0 | 7.0 | 0.14 | 0.50 | 0.50 | 90 | 1014.0 |
| 20260903014540 | 68 | 273 | 0.0 | 13.0 | 0.13 | 0.49 | 0.49 | 91 | 1013.9 |
| 20260903014105 | 68 | 137 | 0.0 | 13.0 | 0.12 | 0.48 | 0.48 | 91 | 1013.7 |
| 20260903013615 | 68 | 167 | 1.0 | 13.0 | 0.11 | 0.47 | 0.47 | 91 | 1014.1 |
| 20260903013139 | 68 | 204 | 0.0 | 8.0 | 0.10 | 0.46 | 0.46 | 91 | 1014.4 |
| 20260903012506 | 68 | 141 | 0.0 | 4.0 | 0.09 | 0.45 | 0.45 | 91 | 1014.5 |
| 20260903012029 | 68 | 81 | 0.0 | 2.0 | 0.08 | 0.44 | 0.44 | 91 | 1014.7 |
| 20260903011543 | 69 | 240 | 0.0 | 3.0 | 0.08 | 0.44 | 0.44 | 91 | 1015.4 |
| 20260903011102 | 69 | 116 | 0.0 | 6.0 | 0.08 | 0.44 | 0.44 | 92 | 1015.6 |
| 20260903010619 | 69 | 219 | 1.0 | 11.0 | 0.05 | 0.41 | 0.41 | 92 | 1015.4 |
| 20260903010035 | 69 | 113 | 2.0 | 11.0 | 0.01 | 0.37 | 0.37 | 92 | 1015.5 |
| 20260903005550 | 69 | 193 | 1.0 | 8.0 | 0.00 | 0.36 | 0.36 | 92 | 1015.1 |
| 20260903005111 | 69 | 103 | 0.0 | 10.0 | 0.00 | 0.36 | 0.36 | 92 | 1014.7 |
| 20260903004632 | 70 | 154 | 0.0 | 10.0 | 0.00 | 0.36 | 0.36 | 92 | 1014.9 |
| 20260903004016 | 70 | 143 | 0.0 | 7.0 | 0.00 | 0.36 | 0.36 | 92 | 1014.5 |
| 20260903003533 | 70 | 157 | 0.0 | 8.0 | 0.00 | 0.36 | 0.36 | 92 | 1014.3 |
| 20260903003109 | 70 | 230 | 0.0 | 8.0 | 0.00 | 0.36 | 0.36 | 92 | 1014.4 |
| 20260903002613 | 70 | 118 | 0.0 | 8.0 | 0.00 | 0.36 | 0.36 | 92 | 1014.2 |
| 20260903002001 | 70 | 126 | 0.0 | 7.0 | 0.00 | 0.36 | 0.36 | 91 | 1014.1 |
| 20260903001549 | 70 | 217 | 0.0 | 8.0 | 0.00 | 0.36 | 0.36 | 91 | 1014.2 |
| 20260903001109 | 70 | 136 | 0.0 | 8.0 | 0.00 | 0.36 | 0.36 | 91 | 1014.3 |
| 20260903000625 | 70 | 169 | 0.0 | 7.0 | 0.00 | 0.36 | 0.36 | 91 | 1014.0 |
| 20260903000149 | 70 | 137 | 0.0 | 7.0 | 0.00 | 0.36 | 0.36 | 91 | 1014.0 |
| 20260902235509 | 70 | 165 | 0.0 | 10.0 | 0.00 | 0.36 | 0.36 | 91 | 1014.1 |
| 20260902235031 | 70 | 165 | 0.0 | 10.0 | 0.00 | 0.36 | 0.36 | 91 | 1013.9 |
| 20260902234559 | 70 | 129 | 0.0 | 12.0 | 0.00 | 0.36 | 0.36 | 91 | 1013.7 |
| 20260902234119 | 70 | 139 | 1.0 | 12.0 | 0.00 | 0.36 | 0.36 | 91 | 1014.0 |
| 20260902233501 | 70 | 186 | 0.0 | 5.0 | 0.00 | 0.36 | 0.36 | 91 | 1013.9 |
| 20260902233041 | 71 | 135 | 0.0 | 5.0 | 0.00 | 0.36 | 0.36 | 91 | 1013.9 |
| 20260902232555 | 71 | 91 | 0.0 | 5.0 | 0.00 | 0.36 | 0.36 | 91 | 1014.0 |
| 20260902232116 | 71 | 130 | 0.0 | 4.0 | 0.00 | 0.36 | 0.36 | 91 | 1014.1 |
| 20260902231518 | 71 | 164 | 0.0 | 9.0 | 0.00 | 0.36 | 0.36 | 91 | 1014.2 |
| 20260902231057 | 71 | 358 | 0.0 | 9.0 | 0.00 | 0.36 | 0.36 | 91 | 1013.7 |
| 20260902230620 | 71 | 158 | 0.0 | 14.0 | 0.00 | 0.36 | 0.36 | 91 | 1013.7 |
| 20260902230046 | 71 | 206 | 0.0 | 18.0 | 0.00 | 0.36 | 0.36 | 91 | 1013.5 |
| 20260902225559 | 71 | 196 | 2.0 | 18.0 | 0.00 | 0.36 | 0.36 | 91 | 1013.3 |
| 20260902225119 | 71 | 112 | 2.0 | 15.0 | 0.00 | 0.36 | 0.36 | 90 | 1013.1 |
| 20260902224643 | 71 | 129 | 0.0 | 15.0 | 0.00 | 0.36 | 0.36 | 90 | 1013.1 |
| 20260902224007 | 72 | 148 | 2.0 | 11.0 | 0.00 | 0.36 | 0.36 | 90 | 1013.1 |
| 20260902223525 | 72 | 190 | 0.0 | 13.0 | 0.00 | 0.36 | 0.36 | 90 | 1013.0 |
| 20260902223049 | 72 | 156 | 1.0 | 13.0 | 0.00 | 0.36 | 0.36 | 90 | 1012.9 |
| 20260902222601 | 72 | 71 | 1.0 | 12.0 | 0.00 | 0.36 | 0.36 | 89 | 1013.1 |
| 20260902222122 | 72 | 91 | 0.0 | 12.0 | 0.00 | 0.36 | 0.36 | 89 | 1013.1 |
| 20260902221543 | 72 | 119 | 0.0 | 12.0 | 0.00 | 0.36 | 0.36 | 89 | 1013.2 |
| 20260902221109 | 73 | 97 | 0.0 | 8.0 | 0.00 | 0.36 | 0.36 | 88 | 1013.4 |
| 20260902220626 | 73 | 209 | 0.0 | 7.0 | 0.00 | 0.36 | 0.36 | 88 | 1014.0 |
| 20260902220005 | 73 | 107 | 0.0 | 4.0 | 0.00 | 0.36 | 0.36 | 88 | 1014.5 |
| 20260902215524 | 74 | 80 | 0.0 | 3.0 | 0.00 | 0.36 | 0.36 | 87 | 1014.7 |
| 20260902215049 | 74 | 139 | 0.0 | 6.0 | 0.00 | 0.36 | 0.36 | 87 | 1014.9 |
| 20260902214624 | 74 | 145 | 0.0 | 6.0 | 0.00 | 0.36 | 0.36 | 87 | 1015.0 |
| 20260902214121 | 74 | 156 | 0.0 | 3.0 | 0.00 | 0.36 | 0.36 | 87 | 1015.1 |
| 20260902213501 | 74 | 144 | 0.0 | 3.0 | 0.00 | 0.36 | 0.36 | 87 | 1015.3 |
| 20260902213037 | 74 | 221 | 0.0 | 1.0 | 0.00 | 0.36 | 0.36 | 87 | 1015.4 |
| 20260902212555 | 75 | 114 | 0.0 | 4.0 | 0.00 | 0.36 | 0.36 | 86 | 1015.6 |
| 20260902212109 | 75 | 142 | 0.0 | 4.0 | 0.00 | 0.36 | 0.36 | 85 | 1015.6 |
| 20260902211631 | 76 | 119 | 0.0 | 10.0 | 0.00 | 0.36 | 0.36 | 84 | 1015.6 |
| 20260902211005 | 76 | 183 | 0.0 | 6.0 | 0.00 | 0.36 | 0.36 | 83 | 1015.5 |
| 20260902210529 | 77 | 168 | 0.0 | 8.0 | 0.00 | 0.36 | 0.36 | 84 | 1015.3 |
| 20260902210047 | 76 | 102 | 0.0 | 8.0 | 0.00 | 0.36 | 0.36 | 84 | 1015.4 |
| 20260902205600 | 76 | 162 | 1.0 | 7.0 | 0.00 | 0.36 | 0.36 | 83 | 1015.5 |
| 20260902205120 | 76 | 112 | 0.0 | 14.0 | 0.00 | 0.36 | 0.36 | 84 | 1015.4 |
| 20260902204638 | 76 | 206 | 4.0 | 16.0 | 0.00 | 0.36 | 0.36 | 83 | 1015.4 |
| 20260902204007 | 76 | 143 | 3.0 | 13.0 | 0.00 | 0.36 | 0.36 | 83 | 1015.6 |
| 20260902203532 | 76 | 179 | 2.0 | 14.0 | 0.00 | 0.36 | 0.36 | 82 | 1015.6 |
| 20260902203057 | 77 | 189 | 2.0 | 14.0 | 0.00 | 0.36 | 0.36 | 82 | 1015.6 |
| 20260902202613 | 77 | 213 | 3.0 | 14.0 | 0.00 | 0.36 | 0.36 | 81 | 1015.5 |
| 20260902202003 | 77 | 203 | 2.0 | 12.0 | 0.00 | 0.36 | 0.36 | 81 | 1015.5 |
| 20260902201556 | 77 | 216 | 1.0 | 16.0 | 0.00 | 0.36 | 0.36 | 81 | 1015.3 |
| 20260902201101 | 78 | 167 | 3.0 | 16.0 | 0.00 | 0.36 | 0.36 | 80 | 1015.2 |
| 20260902200624 | 78 | 183 | 0.0 | 16.0 | 0.00 | 0.36 | 0.36 | 81 | 1015.0 |
| 20260902200039 | 78 | 148 | 3.0 | 14.0 | 0.00 | 0.36 | 0.36 | 80 | 1014.9 |
| 20260902195559 | 78 | 195 | 4.0 | 14.0 | 0.00 | 0.36 | 0.36 | 79 | 1015.1 |
| 20260902195117 | 78 | 168 | 1.0 | 10.0 | 0.00 | 0.36 | 0.36 | 81 | 1015.0 |
| 20260902194547 | 78 | 165 | 2.0 | 12.0 | 0.00 | 0.36 | 0.36 | 80 | 1015.0 |
| 20260902194059 | 78 | 144 | 2.0 | 13.0 | 0.00 | 0.36 | 0.36 | 80 | 1015.3 |
| 20260902193615 | 78 | 156 | 4.0 | 12.0 | 0.00 | 0.36 | 0.36 | 79 | 1015.4 |
| 20260902193011 | 79 | 158 | 1.0 | 12.0 | 0.00 | 0.36 | 0.36 | 78 | 1015.3 |
| 20260902192533 | 79 | 71 | 0.0 | 9.0 | 0.00 | 0.36 | 0.36 | 78 | 1015.5 |
| 20260902192049 | 79 | 219 | 1.0 | 17.0 | 0.00 | 0.36 | 0.36 | 78 | 1015.4 |
| 20260902191617 | 79 | 178 | 1.0 | 11.0 | 0.00 | 0.36 | 0.36 | 77 | 1015.5 |
| 20260902191004 | 79 | 199 | 0.0 | 10.0 | 0.00 | 0.36 | 0.36 | 78 | 1015.4 |
| 20260902190525 | 79 | 217 | 1.0 | 10.0 | 0.00 | 0.36 | 0.36 | 78 | 1015.5 |
| 20260902185617 | 79 | 211 | 1.0 | 10.0 | 0.00 | 0.36 | 0.36 | 78 | 1015.8 |
| 20260902185129 | 79 | 224 | 1.0 | 15.0 | 0.00 | 0.36 | 0.36 | 79 | 1015.9 |
| 20260902184544 | 79 | 235 | 1.0 | 15.0 | 0.00 | 0.36 | 0.36 | 77 | 1015.8 |
| 20260902184057 | 79 | 251 | 0.0 | 10.0 | 0.00 | 0.36 | 0.36 | 78 | 1016.0 |
| 20260902183617 | 79 | 233 | 0.0 | 10.0 | 0.00 | 0.36 | 0.36 | 79 | 1015.9 |
| 20260902183142 | 78 | 209 | 1.0 | 11.0 | 0.00 | 0.36 | 0.36 | 79 | 1015.8 |
| 20260902182510 | 77 | 164 | 2.0 | 11.0 | 0.00 | 0.36 | 0.36 | 81 | 1015.8 |
| 20260902182029 | 77 | 204 | 1.0 | 8.0 | 0.00 | 0.36 | 0.36 | 81 | 1015.7 |
| 20260902181549 | 77 | 216 | 0.0 | 8.0 | 0.00 | 0.36 | 0.36 | 83 | 1015.7 |
| 20260902181107 | 76 | 185 | 0.0 | 12.0 | 0.00 | 0.36 | 0.36 | 83 | 1015.8 |
| 20260902180622 | 76 | 278 | 1.0 | 12.0 | 0.00 | 0.36 | 0.36 | 83 | 1015.8 |
| 20260902180147 | 76 | 155 | 0.0 | 10.0 | 0.00 | 0.36 | 0.36 | 84 | 1015.8 |
| 20260902175509 | 75 | 181 | 1.0 | 10.0 | 0.00 | 0.36 | 0.36 | 85 | 1016.0 |
| 20260902175025 | 74 | 169 | 0.0 | 9.0 | 0.00 | 0.36 | 0.36 | 85 | 1016.0 |
| 20260902174547 | 74 | 233 | 0.0 | 11.0 | 0.00 | 0.36 | 0.36 | 86 | 1015.9 |
| 20260902174103 | 73 | 133 | 0.0 | 11.0 | 0.00 | 0.36 | 0.36 | 85 | 1015.9 |
| 20260902173616 | 73 | 13 | 0.0 | 10.0 | 0.00 | 0.36 | 0.36 | 87 | 1016.1 |
| 20260902173142 | 72 | 152 | 0.0 | 12.0 | 0.00 | 0.36 | 0.36 | 88 | 1016.1 |
| 20260902172511 | 71 | 230 | 1.0 | 13.0 | 0.00 | 0.36 | 0.36 | 88 | 1016.1 |
| 20260902172029 | 71 | 169 | 3.0 | 18.0 | 0.00 | 0.36 | 0.36 | 88 | 1016.1 |
| 20260902171544 | 71 | 245 | 9.0 | 18.0 | 0.00 | 0.36 | 0.36 | 88 | 1016.1 |
| 20260902171102 | 71 | 151 | 2.0 | 18.0 | 0.00 | 0.36 | 0.36 | 90 | 1016.1 |
| 20260902170618 | 71 | 206 | 5.0 | 13.0 | 0.00 | 0.36 | 0.36 | 91 | 1016.0 |
| 20260902170139 | 70 | 249 | 3.0 | 12.0 | 0.00 | 0.36 | 0.36 | 92 | 1015.9 |
| 20260902165505 | 69 | 195 | 3.0 | 12.0 | 0.01 | 0.36 | 0.36 | 92 | 1015.8 |
| 20260902165027 | 69 | 101 | 1.0 | 12.0 | 0.01 | 0.36 | 0.36 | 92 | 1015.8 |
| 20260902164546 | 69 | 234 | 5.0 | 12.0 | 0.03 | 0.36 | 0.36 | 92 | 1016.1 |
| 20260902164056 | 68 | 107 | 2.0 | 15.0 | 0.03 | 0.36 | 0.36 | 90 | 1016.1 |
| 20260902163615 | 67 | 185 | 4.0 | 15.0 | 0.03 | 0.36 | 0.36 | 90 | 1016.1 |
| 20260902163035 | 66 | 115 | 2.0 | 15.0 | 0.04 | 0.36 | 0.36 | 90 | 1016.2 |
| 20260902162552 | 66 | 138 | 3.0 | 15.0 | 0.06 | 0.36 | 0.36 | 90 | 1016.4 |
| 20260902162112 | 66 | 176 | 6.0 | 14.0 | 0.08 | 0.36 | 0.36 | 90 | 1016.5 |
| 20260902161515 | 65 | 217 | 3.0 | 13.0 | 0.12 | 0.36 | 0.36 | 91 | 1016.8 |
| 20260902161025 | 65 | 111 | 4.0 | 12.0 | 0.17 | 0.36 | 0.36 | 91 | 1016.7 |
| 20260902160542 | 65 | 189 | 2.0 | 12.0 | 0.22 | 0.36 | 0.36 | 91 | 1016.9 |
| 20260902160059 | 65 | 186 | 0.0 | 7.0 | 0.23 | 0.36 | 0.36 | 90 | 1017.0 |
| 20260902155615 | 65 | 126 | 1.0 | 8.0 | 0.24 | 0.35 | 0.35 | 90 | 1016.9 |
| 20260902155004 | 65 | 147 | 0.0 | 8.0 | 0.23 | 0.34 | 0.34 | 90 | 1017.2 |
| 20260902154535 | 65 | 158 | 0.0 | 0.0 | 0.23 | 0.33 | 0.33 | 91 | 1017.8 |
| 20260902154056 | 65 | 146 | 0.0 | 1.0 | 0.24 | 0.33 | 0.33 | 91 | 1018.1 |
| 20260902153623 | 65 | 144 | 0.0 | 3.0 | 0.25 | 0.33 | 0.33 | 91 | 1018.1 |
| 20260902153147 | 65 | 135 | 0.0 | 6.0 | 0.25 | 0.32 | 0.32 | 91 | 1018.4 |
| 20260902152506 | 66 | 177 | 1.0 | 8.0 | 0.25 | 0.30 | 0.30 | 91 | 1019.3 |
| 20260902152029 | 66 | 255 | 1.0 | 10.0 | 0.25 | 0.27 | 0.27 | 91 | 1019.5 |
| 20260902151545 | 66 | 220 | 3.0 | 11.0 | 0.21 | 0.23 | 0.23 | 91 | 1019.5 |
| 20260902151104 | 67 | 249 | 3.0 | 11.0 | 0.18 | 0.19 | 0.19 | 91 | 1019.7 |
| 20260902150621 | 67 | 220 | 1.0 | 6.0 | 0.14 | 0.15 | 0.15 | 91 | 1019.8 |
| 20260902150145 | 68 | 293 | 0.0 | 1.0 | 0.13 | 0.13 | 0.13 | 91 | 1019.3 |
| 20260902145513 | 68 | 272 | 0.0 | 3.0 | 0.11 | 0.11 | 0.11 | 91 | 1018.6 |
| 20260902145031 | 69 | 227 | 0.0 | 3.0 | 0.11 | 0.11 | 0.11 | 91 | 1018.4 |
| 20260902144552 | 69 | 131 | 0.0 | 2.0 | 0.10 | 0.10 | 0.10 | 90 | 1018.1 |
| 20260902144100 | 69 | 238 | 0.0 | 6.0 | 0.09 | 0.09 | 0.09 | 91 | 1017.7 |
| 20260902143619 | 69 | 255 | 0.0 | 6.0 | 0.08 | 0.08 | 0.08 | 91 | 1017.9 |
| 20260902143037 | 70 | 223 | 0.0 | 4.0 | 0.06 | 0.06 | 0.06 | 91 | 1018.2 |
| 20260902142555 | 70 | 278 | 0.0 | 4.0 | 0.05 | 0.05 | 0.05 | 91 | 1018.4 |
| 20260902142113 | 70 | 235 | 0.0 | 1.0 | 0.02 | 0.02 | 0.02 | 91 | 1018.1 |
| 20260902141636 | 70 | 196 | 0.0 | 3.0 | 0.02 | 0.02 | 0.02 | 91 | 1017.7 |
| 20260902141123 | 70 | 129 | 0.0 | 4.0 | 0.01 | 0.01 | 0.01 | 91 | 1017.3 |
| 20260902140507 | 70 | 153 | 0.0 | 3.0 | 0.01 | 0.01 | 0.01 | 91 | 1017.2 |
| 20260902140033 | 70 | 207 | 0.0 | 8.0 | 0.00 | 0.00 | 0.00 | 91 | 1017.1 |
| 20260902135553 | 70 | 53 | 0.0 | 8.0 | 0.00 | 0.01 | 0.00 | 91 | 1016.8 |
| 20260902135108 | 70 | 176 | 0.0 | 6.0 | 0.00 | 0.01 | 0.00 | 91 | 1016.8 |
| 20260902134533 | 70 | 134 | 0.0 | 2.0 | 0.00 | 0.01 | 0.00 | 91 | 1017.0 |
| 20260902134050 | 70 | 162 | 0.0 | 2.0 | 0.00 | 0.01 | 0.00 | 91 | 1017.1 |
| 20260902133613 | 70 | 159 | 0.0 | 2.0 | 0.00 | 0.01 | 0.00 | 91 | 1017.2 |
| 20260902133012 | 70 | 203 | 0.0 | 3.0 | 0.00 | 0.01 | 0.00 | 91 | 1017.3 |
| 20260902132528 | 70 | 155 | 0.0 | 6.0 | 0.00 | 0.01 | 0.00 | 91 | 1017.3 |
| 20260902132046 | 70 | 126 | 0.0 | 6.0 | 0.00 | 0.01 | 0.00 | 91 | 1017.2 |
| 20260902131622 | 70 | 158 | 0.0 | 5.0 | 0.00 | 0.01 | 0.00 | 91 | 1017.2 |
| 20260902131007 | 70 | 249 | 0.0 | 11.0 | 0.00 | 0.01 | 0.00 | 91 | 1017.0 |
| 20260902130527 | 70 | 155 | 4.0 | 11.0 | 0.00 | 0.01 | 0.00 | 91 | 1017.1 |
| 20260902130101 | 70 | 150 | 1.0 | 6.0 | 0.00 | 0.01 | 0.00 | 91 | 1017.1 |
| 20260902125616 | 70 | 183 | 1.0 | 7.0 | 0.00 | 0.01 | 0.00 | 91 | 1017.1 |
| 20260902125135 | 70 | 144 | 0.0 | 10.0 | 0.00 | 0.01 | 0.00 | 91 | 1016.9 |
| 20260902124550 | 70 | 143 | 1.0 | 7.0 | 0.00 | 0.01 | 0.00 | 91 | 1017.0 |
| 20260902124059 | 70 | 168 | 1.0 | 6.0 | 0.00 | 0.01 | 0.00 | 91 | 1017.1 |
| 20260902123616 | 70 | 148 | 0.0 | 7.0 | 0.00 | 0.01 | 0.00 | 91 | 1017.2 |
| 20260902123141 | 70 | 160 | 1.0 | 8.0 | 0.00 | 0.01 | 0.00 | 91 | 1017.1 |
| 20260902122505 | 69 | 172 | 0.0 | 10.0 | 0.00 | 0.01 | 0.00 | 91 | 1017.3 |
| 20260902122024 | 69 | 117 | 1.0 | 10.0 | 0.00 | 0.01 | 0.00 | 91 | 1017.1 |
| 20260902121606 | 69 | 143 | 1.0 | 10.0 | 0.00 | 0.01 | 0.00 | 91 | 1016.9 |
| 20260902121114 | 69 | 124 | 2.0 | 10.0 | 0.00 | 0.01 | 0.00 | 91 | 1016.6 |
| 20260902120633 | 69 | 151 | 1.0 | 9.0 | 0.00 | 0.01 | 0.00 | 91 | 1016.5 |
| 20260902120033 | 68 | 86 | 2.0 | 11.0 | 0.00 | 0.01 | 0.00 | 90 | 1016.5 |
| 20260902115554 | 68 | 131 | 2.0 | 14.0 | 0.00 | 0.01 | 0.00 | 90 | 1016.4 |
| 20260902115111 | 68 | 134 | 1.0 | 15.0 | 0.00 | 0.01 | 0.00 | 89 | 1016.6 |
| 20260902114502 | 68 | 169 | 6.0 | 15.0 | 0.00 | 0.01 | 0.00 | 89 | 1016.5 |
| 20260902114017 | 68 | 119 | 2.0 | 10.0 | 0.00 | 0.01 | 0.00 | 89 | 1016.6 |
| 20260902113533 | 67 | 141 | 1.0 | 10.0 | 0.00 | 0.01 | 0.00 | 89 | 1016.5 |